Showing default

PIAST-S1, 66749

Orbit data source: Space-Track

PIAST-S1, 66749 is a Polish payload satellite in SSO that was launched on Fri, 28 Nov 2025 UTC via an FALCON 9 launch vehicle from the Air Force Western Test Range (AFWTR). Payload-class satellites include a variety of spacecraft equipped with specific instruments for various scientific and technological missions. These include communications satellites like Starlink; space stations such as the ISS; scientific satellites like the Hubble; Earth observation satellites from companies like Planet Labs, Umbra, and HawkEye 360; GPS; miniature CubeSats for education and research; and military/defense satellites.

Loading next visibility...
Identifier
66749, 2025-276CM
Orbit
SSO
Country
Flag of PLPL / POL
Related business
Manufacturer
CREO
Mission
Operational Amateur Imaging
Bus & Motor
CUBESAT 6U, Unknown motor
Mass
12 kg wet, 12 kg dry
Launch date (UTC)
2025-11-28 (6 months ago)
Launch vehicle
FALCON 9
Launch site
Air Force Western Test Range (AFWTR)
Object type
Payload
Rocket body
Debris
Shape & HBR
Box + 1 Pan, 0.1 m
Radar Cross Section
0.080 m², Medium (>0.1 m² and < 1m²)

Expand to show TLE details & history
Last TLE update: 6 days ago

TLE from 6 days ago
0 PIAST-S1
1 66749U 25276CM  26155.11307415  .00006100  00000-0  28527-3 0  9999
2 66749  97.4191 228.9795 0003048  46.9086 313.2404 15.20125700 28443
Epoch: 2026-06-04T02:42Z
TLE epoch observation values (Epoch: 2026-06-04T02:42:49.606Z)
Latitude
-0.00001°
Longitude
-64.2892°
Altitude
507.114 km
Speed
7.611 km/s
True Right ascension
15h 15m 55s
True Declination
0° 00' 00"
Sunlit
Object was in full shadow at epoch
Visualization orbit readout
Latitude
Unknown
Longitude
Unknown
Altitude
Unknown
Speed
Unknown
Apparent Right ascension
Unknown
Apparent Declination
Unknown
Sunlit
N/A
Visualization observer readout
Local Sidereal Time
23:22:41
Azimuth
Unknown
Elevation
Unknown
Doppler factor
Unknown
Orbital elements
Apogee altitude
504.525 km
Perigee altitude
500.33 km
Semi-major axis
6,880.564 km
Eccentricity
0.0003
Inclination
97.4191°
RAAN
228.9795°
Arg. of periapsis
46.9086°
True anomaly
313.21495°
Mean anomaly
313.2404°
Eccentric anomaly
313.22768°
Mean motion
3.80283 °/min
Orbital period
94.67 mins
BSTAR
0.00028527
Loading maneuver chart data...
Computing Atmospheric mass density...
Loading historical data...
Loading historical data...
Loading historical data...
Loading historical data...
Loading historical data...
Loading historical data...
Loading historical data...

Documentation

Showing up to 5 results
|